BLF1050 ULLI-ULPB

Flight info

Callsign BLF1050
Flight time 0h 42m
Altitude 27000
Route RELNI1A RELNI T693 DISUP T821 BOBMU BOBMU2G
Aircraft B738/M-SDE2E3FGHIRWXY/LB1

Departure

Time 2026-04-26 19:22
Airport Pulkovo Airport (ULLI)

Arrival

Time 2026-04-26 20:04
Airport Petrozavodsk Airport (ULPB)
Time Latitude Longitude Altitude Speed Heading
2026-04-26 19:02 59.80267 30.26570 80 ft 0 kts 287°
2026-04-26 19:15 59.80283 30.26471 81 ft 8 kts 301°
2026-04-26 19:15 59.80359 30.26452 82 ft 14 kts
2026-04-26 19:15 59.80430 30.26511 82 ft 14 kts 53°
2026-04-26 19:15 59.80414 30.26738 83 ft 19 kts 107°
2026-04-26 19:16 59.80371 30.27034 84 ft 22 kts 106°
2026-04-26 19:16 59.80324 30.27340 81 ft 20 kts 106°
2026-04-26 19:16 59.80288 30.27582 84 ft 16 kts 106°
2026-04-26 19:16 59.80253 30.27822 82 ft 21 kts 106°
2026-04-26 19:17 59.80209 30.28117 78 ft 23 kts 107°
2026-04-26 19:17 59.80165 30.28411 75 ft 24 kts 106°
2026-04-26 19:17 59.80128 30.28662 69 ft 20 kts 106°
2026-04-26 19:17 59.80087 30.28932 73 ft 24 kts 107°
2026-04-26 19:18 59.80054 30.29149 70 ft 15 kts 107°
2026-04-26 19:18 59.80021 30.29371 76 ft 15 kts 106°
2026-04-26 19:18 59.79986 30.29602 71 ft 19 kts 107°
2026-04-26 19:18 59.79947 30.29871 71 ft 16 kts 105°
2026-04-26 19:19 59.79977 30.30107 71 ft 13 kts 47°
2026-04-26 19:19 59.80048 30.30256 70 ft 18 kts 39°
2026-04-26 19:19 59.80129 30.30211 74 ft 17 kts 280°
2026-04-26 19:19 59.80140 30.30108 75 ft 0 kts 286°
2026-04-26 19:20 59.80140 30.30104 75 ft 0 kts 286°
2026-04-26 19:20 59.80141 30.30096 75 ft 2 kts 286°
2026-04-26 19:21 59.80148 30.30047 75 ft 5 kts 286°
2026-04-26 19:21 59.80166 30.29929 67 ft 18 kts 286°
2026-04-26 19:21 59.80276 30.29200 71 ft 93 kts 287°
2026-04-26 19:21 59.80533 30.27545 82 ft 155 kts 290°
2026-04-26 19:22 59.80774 30.26112 295 ft 172 kts 291°
2026-04-26 19:22 59.81163 30.23700 799 ft 191 kts 292°
2026-04-26 19:22 59.81615 30.21175 1364 ft 197 kts 293°
2026-04-26 19:22 59.82027 30.18560 2074 ft 198 kts 289°
2026-04-26 19:23 59.82389 30.15791 2489 ft 211 kts 290°
2026-04-26 19:23 59.82773 30.12924 3107 ft 216 kts 294°
2026-04-26 19:23 59.83167 30.10035 3786 ft 218 kts 294°
2026-04-26 19:23 59.83584 30.07074 4308 ft 225 kts 294°
2026-04-26 19:24 59.84014 30.04067 4862 ft 232 kts 293°
2026-04-26 19:24 59.84693 30.01216 5432 ft 225 kts 320°
2026-04-26 19:24 59.87468 29.99330 6777 ft 218 kts
2026-04-26 19:25 59.88951 30.00011 7491 ft 220 kts 16°
2026-04-26 19:25 59.89935 30.00588 7908 ft 223 kts 17°
2026-04-26 19:25 59.91906 30.02030 8774 ft 230 kts 32°
2026-04-26 19:25 59.93017 30.04383 9336 ft 242 kts 57°
2026-04-26 19:26 59.93505 30.07598 9979 ft 252 kts 83°
2026-04-26 19:26 59.93271 30.11124 10653 ft 260 kts 99°
2026-04-26 19:26 59.92766 30.14621 11329 ft 263 kts 102°
2026-04-26 19:26 59.92219 30.18124 11971 ft 266 kts 104°
2026-04-26 19:27 59.91498 30.21644 12304 ft 285 kts 110°
2026-04-26 19:27 59.90646 30.25307 12479 ft 304 kts 111°
2026-04-26 19:27 59.89734 30.29239 12814 ft 318 kts 111°
2026-04-26 19:27 59.88862 30.33311 13412 ft 319 kts 102°
2026-04-26 19:28 59.88536 30.37723 13660 ft 330 kts 89°
2026-04-26 19:28 59.88438 30.42413 13859 ft 346 kts 88°
2026-04-26 19:28 59.88348 30.47259 14325 ft 353 kts 89°
2026-04-26 19:28 59.88234 30.52170 14926 ft 355 kts 89°
2026-04-26 19:29 59.88096 30.57100 15534 ft 357 kts 89°
2026-04-26 19:29 59.87946 30.62056 16109 ft 361 kts 90°
2026-04-26 19:29 59.87956 30.67046 16628 ft 359 kts 77°
2026-04-26 19:29 59.88734 30.71722 17155 ft 355 kts 58°
2026-04-26 19:30 59.90042 30.75895 17747 ft 354 kts 54°
2026-04-26 19:30 59.91409 30.79945 18422 ft 351 kts 53°
2026-04-26 19:30 59.92783 30.83973 19056 ft 351 kts 53°
2026-04-26 19:30 59.93689 30.86636 19450 ft 351 kts 53°
2026-04-26 19:31 59.95498 30.92003 20226 ft 351 kts 54°
2026-04-26 19:31 59.96853 30.96063 20785 ft 351 kts 54°
2026-04-26 19:31 59.98199 31.00124 21366 ft 351 kts 54°
2026-04-26 19:31 59.99543 31.04197 21903 ft 351 kts 55°
2026-04-26 19:32 60.00885 31.08276 22411 ft 350 kts 55°
2026-04-26 19:32 60.02225 31.12226 22587 ft 349 kts 50°
2026-04-26 19:32 60.03937 31.15669 22619 ft 350 kts 38°
2026-04-26 19:32 60.05945 31.18413 22617 ft 349 kts 32°
2026-04-26 19:33 60.08016 31.20962 22612 ft 350 kts 32°
2026-04-26 19:33 60.10099 31.23502 22611 ft 350 kts 31°
2026-04-26 19:33 60.12181 31.26047 22611 ft 351 kts 32°
2026-04-26 19:33 60.14264 31.28604 22609 ft 351 kts 32°
2026-04-26 19:34 60.16349 31.31180 22612 ft 352 kts 32°
2026-04-26 19:34 60.18434 31.33767 22612 ft 352 kts 32°
2026-04-26 19:34 60.20519 31.36364 22608 ft 352 kts 32°
2026-04-26 19:34 60.22604 31.38969 22608 ft 352 kts 32°
2026-04-26 19:35 60.24667 31.41553 22609 ft 353 kts 32°
2026-04-26 19:35 60.26754 31.44173 22612 ft 353 kts 32°
2026-04-26 19:35 60.28842 31.46799 22610 ft 354 kts 32°
2026-04-26 19:35 60.30934 31.49434 22609 ft 354 kts 32°
2026-04-26 19:36 60.33023 31.52073 22609 ft 354 kts 32°
2026-04-26 19:36 60.34411 31.53827 22607 ft 355 kts 32°
2026-04-26 19:36 60.37210 31.57368 22610 ft 355 kts 32°
2026-04-26 19:36 60.39302 31.60019 22609 ft 355 kts 32°
2026-04-26 19:37 60.41394 31.62675 22611 ft 355 kts 32°
2026-04-26 19:37 60.43485 31.65332 22609 ft 355 kts 33°
2026-04-26 19:37 60.45555 31.67969 22608 ft 355 kts 33°
2026-04-26 19:37 60.47647 31.70638 22610 ft 355 kts 33°
2026-04-26 19:38 60.49733 31.73305 22609 ft 355 kts 33°
2026-04-26 19:38 60.51827 31.75984 22609 ft 355 kts 33°
2026-04-26 19:38 60.53921 31.78667 22608 ft 355 kts 33°
2026-04-26 19:38 60.56010 31.81349 22608 ft 354 kts 33°
2026-04-26 19:39 60.58093 31.84027 22609 ft 354 kts 33°
2026-04-26 19:39 60.60178 31.86710 22610 ft 354 kts 33°
2026-04-26 19:39 60.62256 31.89390 22611 ft 354 kts 33°
2026-04-26 19:39 60.64333 31.92071 22609 ft 354 kts 33°
2026-04-26 19:40 60.66411 31.94759 22609 ft 353 kts 33°
2026-04-26 19:40 60.68487 31.97448 22607 ft 353 kts 33°
2026-04-26 19:40 60.70561 32.00140 22609 ft 353 kts 33°
2026-04-26 19:40 60.72631 32.02828 22600 ft 351 kts 33°
2026-04-26 19:41 60.74638 32.05438 22589 ft 341 kts 33°
2026-04-26 19:41 60.76617 32.08015 22597 ft 334 kts 34°
2026-04-26 19:41 60.78576 32.10571 22601 ft 333 kts 34°
2026-04-26 19:41 60.79871 32.12266 22543 ft 335 kts 34°
2026-04-26 19:42 60.82497 32.15706 22239 ft 332 kts 34°
2026-04-26 19:42 60.84438 32.18251 21915 ft 331 kts 34°
2026-04-26 19:42 60.86373 32.20791 21598 ft 329 kts 34°
2026-04-26 19:42 60.88296 32.23320 21276 ft 327 kts 34°
2026-04-26 19:43 60.90182 32.25804 20955 ft 325 kts 34°
2026-04-26 19:43 60.92079 32.28304 20629 ft 323 kts 34°
2026-04-26 19:43 60.93966 32.30796 20313 ft 321 kts 34°
2026-04-26 19:43 60.95845 32.33281 19980 ft 320 kts 34°
2026-04-26 19:44 60.97713 32.35756 19655 ft 318 kts 34°
2026-04-26 19:44 60.99566 32.38215 19334 ft 316 kts 34°
2026-04-26 19:44 61.01409 32.40663 19014 ft 314 kts 34°
2026-04-26 19:44 61.03219 32.43070 18694 ft 313 kts 34°
2026-04-26 19:45 61.05044 32.45499 18382 ft 311 kts 34°
2026-04-26 19:45 61.06857 32.47917 18067 ft 310 kts 34°
2026-04-26 19:45 61.08668 32.50335 17752 ft 308 kts 34°
2026-04-26 19:45 61.10464 32.52737 17434 ft 307 kts 34°
2026-04-26 19:46 61.12249 32.55128 17120 ft 305 kts 34°
2026-04-26 19:46 61.14031 32.57516 16808 ft 304 kts 34°
2026-04-26 19:46 61.15806 32.59898 16493 ft 303 kts 34°
2026-04-26 19:46 61.17571 32.62271 16175 ft 301 kts 34°
2026-04-26 19:47 61.19320 32.64627 15878 ft 299 kts 34°
2026-04-26 19:47 61.20474 32.66183 15676 ft 298 kts 34°
2026-04-26 19:47 61.22773 32.69285 15269 ft 296 kts 34°
2026-04-26 19:47 61.24498 32.71623 14965 ft 295 kts 34°
2026-04-26 19:48 61.26217 32.73950 14667 ft 294 kts 34°
2026-04-26 19:48 61.27928 32.76266 14367 ft 293 kts 34°
2026-04-26 19:48 61.29633 32.78576 14064 ft 291 kts 34°
2026-04-26 19:48 61.31325 32.80878 13768 ft 290 kts 34°
2026-04-26 19:49 61.33017 32.83182 13467 ft 289 kts 34°
2026-04-26 19:49 61.34699 32.85471 13167 ft 289 kts 34°
2026-04-26 19:49 61.36383 32.87766 12870 ft 288 kts 35°
2026-04-26 19:49 61.38053 32.90051 12567 ft 287 kts 34°
2026-04-26 19:50 61.39729 32.92334 12278 ft 287 kts 34°
2026-04-26 19:50 61.41382 32.94599 11983 ft 288 kts 35°
2026-04-26 19:50 61.43064 32.96905 11686 ft 289 kts 35°
2026-04-26 19:50 61.44731 32.99198 11460 ft 283 kts 35°
2026-04-26 19:51 61.46374 33.01461 11093 ft 281 kts 35°
2026-04-26 19:51 61.47912 33.03916 10796 ft 275 kts 49°
2026-04-26 19:51 61.49087 33.06974 10564 ft 267 kts 53°
2026-04-26 19:51 61.50209 33.10045 10283 ft 263 kts 53°
2026-04-26 19:52 61.51313 33.13068 10011 ft 259 kts 53°
2026-04-26 19:52 61.52400 33.16037 9747 ft 254 kts 53°
2026-04-26 19:52 61.53459 33.18917 9626 ft 244 kts 53°
2026-04-26 19:52 61.54493 33.21726 9388 ft 243 kts 53°
2026-04-26 19:53 61.55531 33.24542 9156 ft 245 kts 53°
2026-04-26 19:53 61.56579 33.27382 8921 ft 252 kts 53°
2026-04-26 19:53 61.57655 33.30302 8651 ft 253 kts 53°
2026-04-26 19:53 61.58734 33.33229 8379 ft 253 kts 53°
2026-04-26 19:54 61.59809 33.36146 8108 ft 252 kts 53°
2026-04-26 19:54 61.60884 33.39065 7845 ft 252 kts 53°
2026-04-26 19:54 61.61954 33.41970 7574 ft 251 kts 53°
2026-04-26 19:54 61.63010 33.44843 7306 ft 251 kts 53°
2026-04-26 19:55 61.64074 33.47743 7039 ft 251 kts 53°
2026-04-26 19:55 61.65144 33.50657 6769 ft 251 kts 53°
2026-04-26 19:55 61.66140 33.53670 6469 ft 251 kts 66°
2026-04-26 19:55 61.66506 33.57239 6228 ft 251 kts 88°
2026-04-26 19:56 61.66308 33.60878 5975 ft 251 kts 98°
2026-04-26 19:56 61.65937 33.64469 5698 ft 251 kts 100°
2026-04-26 19:56 61.65546 33.68046 5437 ft 250 kts 100°
2026-04-26 19:56 61.65170 33.71574 5185 ft 250 kts 99°
2026-04-26 19:57 61.64801 33.75145 4913 ft 249 kts 99°
2026-04-26 19:57 61.64436 33.78704 4656 ft 249 kts 99°
2026-04-26 19:57 61.64074 33.82259 4394 ft 248 kts 98°
2026-04-26 19:57 61.63713 33.85803 4145 ft 247 kts 99°
2026-04-26 19:58 61.63603 33.89297 3938 ft 235 kts 77°
2026-04-26 19:58 61.64255 33.92316 3740 ft 221 kts 52°
2026-04-26 19:58 61.65288 33.94470 3622 ft 205 kts 35°
2026-04-26 19:58 61.66524 33.95797 3529 ft 189 kts 26°
2026-04-26 19:59 61.67679 33.96817 3388 ft 177 kts 26°
2026-04-26 19:59 61.68774 33.97779 3373 ft 167 kts 26°
2026-04-26 19:59 61.69876 33.98751 3399 ft 175 kts 26°
2026-04-26 19:59 61.71000 33.99751 3413 ft 174 kts 26°
2026-04-26 20:00 61.72086 34.00713 3266 ft 171 kts 26°
2026-04-26 20:00 61.73164 34.01671 3060 ft 165 kts 26°
2026-04-26 20:00 61.74211 34.02605 2869 ft 161 kts 26°
2026-04-26 20:00 61.75238 34.03520 2676 ft 160 kts 25°
2026-04-26 20:01 61.76266 34.04445 2497 ft 162 kts 25°
2026-04-26 20:01 61.77305 34.05380 2293 ft 161 kts 24°
2026-04-26 20:01 61.78338 34.06307 2099 ft 162 kts 23°
2026-04-26 20:01 61.79360 34.07224 1868 ft 156 kts 22°
2026-04-26 20:02 61.80344 34.08109 1689 ft 150 kts 22°
2026-04-26 20:02 61.81275 34.08945 1484 ft 145 kts 21°
2026-04-26 20:02 61.82197 34.09775 1287 ft 144 kts 21°
2026-04-26 20:02 61.82807 34.10324 1167 ft 144 kts 21°
2026-04-26 20:03 61.84050 34.11445 905 ft 145 kts 21°
2026-04-26 20:03 61.84980 34.12280 722 ft 145 kts 21°
2026-04-26 20:03 61.85917 34.13107 572 ft 151 kts 19°
2026-04-26 20:03 61.86919 34.13997 372 ft 159 kts 22°
2026-04-26 20:04 61.87910 34.14911 165 ft 147 kts 22°
2026-04-26 20:04 61.88736 34.15655 150 ft 105 kts 25°
2026-04-26 20:04 61.89219 34.16104 147 ft 47 kts 25°
2026-04-26 20:04 61.89433 34.16300 144 ft 25 kts 22°
2026-04-26 20:05 61.89519 34.16398 144 ft 6 kts
2026-04-26 20:05 61.89527 34.16330 144 ft 6 kts 235°
2026-04-26 20:05 61.89490 34.16336 143 ft 7 kts 160°
2026-04-26 20:05 61.89441 34.16310 144 ft 8 kts 202°
2026-04-26 20:06 61.89358 34.16236 144 ft 19 kts 204°
2026-04-26 20:06 61.89215 34.16106 147 ft 23 kts 203°
2026-04-26 20:06 61.89079 34.15983 149 ft 19 kts 202°
2026-04-26 20:06 61.88947 34.15868 150 ft 21 kts 202°
2026-04-26 20:07 61.88807 34.15743 149 ft 22 kts 204°
2026-04-26 20:07 61.88670 34.15614 150 ft 20 kts 202°
2026-04-26 20:07 61.88538 34.15494 153 ft 22 kts 203°
2026-04-26 20:07 61.88399 34.15368 153 ft 19 kts 203°
2026-04-26 20:08 61.88307 34.15287 151 ft 22 kts 202°
2026-04-26 20:08 61.88160 34.15153 151 ft 22 kts 203°
2026-04-26 20:08 61.88036 34.15040 152 ft 16 kts 203°
2026-04-26 20:08 61.87934 34.14974 154 ft 13 kts 165°
2026-04-26 20:09 61.87882 34.15131 154 ft 12 kts 114°
2026-04-26 20:09 61.87848 34.15300 154 ft 13 kts 112°
2026-04-26 20:09 61.87789 34.15374 155 ft 7 kts 186°
2026-04-26 20:09 61.87757 34.15447 155 ft 0 kts 111°